Total_Precipitation_Accumulation
0.04 0.10 0.29 0.49 0.88 1.41 1.42 0.93 0.75 0.52 0.41 0.43 0.34 0.31 0.40 0.60 0.89 1.42 1.13 0.81 0.54 0.53 0.68 0.87 0.95 0.93 0.93 0.99 1.21 1.28 1.28 1.32 1.35 1.45 1.54 1.58 1.59 1.50 1.38 1.36 1.33 1.30 1.26 1.18 1.09 1.09 1.10 0.99 0.97
0.05 0.11 0.27 0.49 1.09 1.63 1.34 0.70 0.48 0.38 0.34 0.38 0.35 0.35 0.51 0.56 0.48 0.68 0.74 0.64 0.41 0.41 0.52 0.57 0.64 0.70 0.77 0.87 0.97 1.06 1.08 1.08 1.17 1.39 1.50 1.53 1.48 1.40 1.32 1.25 1.21 1.19 1.19 1.18 1.09 1.06 0.98 0.87 0.86
0.06 0.12 0.26 0.55 0.97 1.18 0.96 0.57 0.37 0.30 0.35 0.49 0.52 0.42 0.62 0.61 0.50 0.60 0.57 0.37 0.27 0.30 0.41 0.46 0.49 0.52 0.55 0.59 0.68 0.86 0.98 1.04 1.14 1.24 1.29 1.31 1.29 1.27 1.19 1.15 1.19 1.19 1.25 1.29 1.14 1.00 0.89 0.80 0.71
0.04 0.13 0.23 0.45 0.58 0.53 0.50 0.41 0.32 0.31 0.35 0.46 0.56 0.57 0.67 0.52 0.37 0.41 0.38 0.23 0.15 0.23 0.34 0.37 0.37 0.37 0.42 0.45 0.55 0.69 0.80 0.90 1.00 1.04 1.09 1.18 1.32 1.27 1.14 1.15 1.20 1.26 1.30 1.21 1.06 0.90 0.82 0.77 0.65
0.04 0.11 0.22 0.41 0.49 0.45 0.38 0.36 0.33 0.40 0.44 0.52 0.57 0.78 0.84 0.62 0.41 0.33 0.31 0.21 0.11 0.16 0.25 0.29 0.30 0.29 0.33 0.39 0.51 0.66 0.79 0.86 0.84 0.90 1.11 1.27 1.33 1.30 1.25 1.20 1.25 1.26 1.19 1.08 1.04 0.94 0.89 0.77 0.67
0.04 0.07 0.17 0.34 0.40 0.40 0.34 0.29 0.25 0.34 0.49 0.65 0.71 0.84 0.94 0.80 0.57 0.43 0.31 0.25 0.19 0.15 0.23 0.31 0.32 0.30 0.32 0.36 0.44 0.58 0.68 0.77 0.82 0.94 1.05 1.11 1.14 1.17 1.22 1.25 1.31 1.22 1.14 1.03 0.96 0.88 0.85 0.78 0.71
0.02 0.06 0.11 0.25 0.33 0.30 0.27 0.29 0.25 0.30 0.48 0.67 0.70 0.95 1.08 1.03 0.77 0.53 0.43 0.42 0.42 0.29 0.28 0.32 0.36 0.38 0.40 0.46 0.57 0.67 0.72 0.83 0.92 0.98 0.98 0.95 0.96 1.04 1.15 1.25 1.27 1.19 1.04 0.91 0.90 0.82 0.73 0.69 0.67
0.02 0.04 0.07 0.14 0.19 0.27 0.22 0.23 0.25 0.32 0.36 0.47 0.58 0.83 1.09 1.02 0.81 0.72 0.82 0.80 0.85 0.64 0.48 0.42 0.50 0.61 0.59 0.57 0.68 0.76 0.81 0.85 0.91 0.95 0.98 1.02 1.04 1.05 1.12 1.16 1.24 1.19 1.06 0.93 0.90 0.82 0.73 0.71 0.69
0.01 0.05 0.07 0.09 0.12 0.18 0.15 0.21 0.24 0.21 0.26 0.35 0.48 0.66 0.87 0.84 0.79 0.97 1.23 1.11 1.14 0.97 0.70 0.54 0.50 0.64 0.75 0.71 0.71 0.82 0.87 0.90 0.98 1.11 1.15 1.26 1.39 1.33 1.45 1.37 1.41 1.36 1.29 1.21 1.14 1.03 0.93 0.84 0.78
0.01 0.05 0.05 0.05 0.05 0.09 0.13 0.18 0.20 0.24 0.44 0.69 0.82 0.87 0.96 1.18 1.16 1.24 1.33 1.22 1.17 1.13 0.92 0.76 0.68 0.65 0.73 0.75 0.93 1.17 1.13 1.17 1.33 1.55 1.56 1.74 1.85 1.83 1.42 1.51 1.71 1.81 1.85 1.72 1.70 1.61 1.32 1.10 1.05
0.01 0.04 0.04 0.03 0.03 0.05 0.10 0.11 0.16 0.27 0.61 0.96 1.17 1.24 1.27 1.45 1.63 1.68 1.72 1.68 1.55 1.46 1.18 0.94 0.88 0.91 0.92 1.06 1.06 1.24 1.45 1.64 1.70 1.68 1.73 1.91 1.82 1.60 1.42 1.53 1.69 1.86 1.95 2.03 2.27 2.25 1.89 1.86 1.94
0.00 0.01 0.02 0.03 0.02 0.03 0.06 0.08 0.17 0.39 0.77 0.93 1.13 1.27 1.31 1.69 1.78 1.78 2.18 2.24 1.84 1.57 1.49 1.37 1.23 1.23 1.33 1.22 1.32 1.33 1.36 1.51 1.67 1.77 1.75 1.88 2.08 1.99 1.85 1.95 1.92 2.08 2.24 2.62 2.56 2.72 2.56 2.31 2.04
0.00 0.01 0.01 0.02 0.02 0.03 0.04 0.09 0.18 0.37 0.59 0.67 0.87 1.03 1.07 1.58 1.89 2.11 2.59 2.53 2.23 2.04 1.92 1.75 1.70 1.76 1.73 1.70 1.72 1.54 1.54 1.62 1.71 1.82 1.95 2.01 2.12 2.13 2.13 2.21 2.25 1.97 2.08 2.39 2.67 2.59 2.73 2.76 2.55
0.00 0.01 0.02 0.03 0.03 0.04 0.04 0.12 0.23 0.43 0.56 0.77 0.78 0.94 1.16 1.55 1.83 2.24 2.57 2.81 2.67 2.41 2.21 2.05 1.99 2.08 2.16 2.10 2.13 2.05 1.78 1.86 1.80 1.97 2.03 2.12 2.20 2.29 2.43 2.46 2.42 2.13 2.11 2.38 2.59 2.51 2.85 2.79 2.74
0.01 0.02 0.05 0.06 0.06 0.06 0.08 0.25 0.48 0.58 0.70 0.86 0.98 1.07 1.29 1.64 2.13 2.40 2.66 2.96 2.99 2.90 2.72 2.48 2.33 2.50 2.73 2.79 2.70 2.48 2.23 2.02 2.02 2.11 2.15 2.23 2.23 2.42 2.42 2.37 2.39 2.34 2.24 2.45 2.57 2.63 2.79 2.64 2.52
0.02 0.04 0.11 0.12 0.09 0.09 0.15 0.55 0.71 0.60 0.77 0.96 1.05 1.28 1.58 1.96 2.40 2.89 3.04 2.91 2.95 3.10 3.05 2.74 2.51 2.96 3.31 3.34 3.27 2.97 2.62 2.32 2.19 2.23 2.22 2.31 2.35 2.48 2.64 2.43 2.34 2.54 2.48 2.63 2.94 2.92 3.05 3.14 3.01
0.03 0.07 0.11 0.16 0.12 0.12 0.25 0.72 0.70 0.53 0.65 0.84 1.07 1.31 1.73 2.25 2.60 2.77 2.81 2.97 3.12 3.24 3.21 3.11 3.19 3.29 3.42 3.51 3.59 3.31 3.04 2.76 2.46 2.31 2.22 2.26 2.36 2.57 2.94 2.81 2.80 2.76 2.76 2.80 2.50 3.11 3.41 3.43 3.26
0.03 0.05 0.11 0.17 0.15 0.18 0.28 0.54 0.63 0.63 0.79 0.91 1.22 1.43 1.59 1.97 2.42 2.52 2.63 3.09 3.18 3.37 3.50 3.41 3.52 3.63 3.89 4.10 4.25 3.84 3.41 3.10 2.80 2.57 2.53 2.53 2.69 2.84 3.12 2.95 2.89 2.85 3.00 3.00 3.04 3.49 3.44 3.17 3.16
0.02 0.05 0.13 0.17 0.15 0.22 0.32 0.53 0.73 0.81 0.97 1.27 1.47 1.47 1.45 1.75 2.23 2.60 2.85 3.02 3.37 3.57 3.74 3.73 3.93 4.30 4.60 4.45 4.12 3.90 3.61 3.36 3.13 2.88 2.72 2.71 2.66 2.82 3.13 2.98 3.20 3.10 2.98 2.97 3.01 3.29 3.34 3.05 3.21
0.02 0.07 0.15 0.18 0.17 0.28 0.42 0.65 0.83 1.03 1.25 1.35 1.27 1.27 1.42 1.79 2.29 2.66 2.94 3.10 3.36 3.62 4.03 4.14 4.32 4.66 4.76 4.60 4.47 4.29 4.13 3.72 3.58 3.41 3.17 2.80 2.61 2.69 2.78 3.11 2.92 2.95 3.04 2.95 3.07 3.30 3.16 2.76 3.19
0.04 0.08 0.14 0.15 0.23 0.38 0.48 0.89 1.08 1.26 1.39 1.38 1.30 1.49 1.51 1.59 2.01 2.29 2.42 2.61 2.80 2.94 3.19 3.47 3.94 4.40 4.52 4.60 4.52 4.46 4.46 3.96 3.69 3.52 3.28 2.90 2.64 2.55 2.71 2.86 2.91 2.91 2.82 2.87 3.07 3.11 3.13 2.96 3.02
0.06 0.06 0.07 0.11 0.21 0.48 0.56 1.12 1.36 1.57 1.67 1.54 1.46 1.39 1.36 1.59 1.93 1.94 1.81 1.96 2.22 2.22 2.54 2.95 3.37 3.69 3.88 3.99 3.99 3.98 3.91 3.77 3.69 3.55 3.14 2.86 2.60 2.51 2.56 2.63 2.69 2.72 2.57 2.66 2.50 2.61 3.05 3.15 2.89
0.05 0.05 0.08 0.13 0.21 0.43 0.49 0.84 1.36 1.76 1.91 1.54 1.45 1.33 1.38 1.60 1.64 1.60 1.63 1.73 1.90 2.07 2.39 2.70 2.99 3.26 3.41 3.50 3.56 3.62 3.50 3.50 3.41 3.22 2.95 2.69 2.51 2.34 2.15 2.22 2.44 2.50 2.37 2.32 2.35 2.57 2.71 2.71 2.69
0.05 0.08 0.15 0.22 0.39 0.73 0.63 0.75 1.27 1.68 1.53 1.33 1.28 1.09 1.19 1.38 1.46 1.51 1.60 1.73 1.86 2.16 2.52 2.80 3.01 3.22 3.28 3.06 2.95 2.94 2.98 3.04 2.97 2.76 2.55 2.30 2.18 2.04 1.87 1.94 2.17 2.22 2.22 2.20 2.19 2.28 2.39 2.46 2.49
0.08 0.17 0.58 0.96 1.28 1.16 0.73 0.84 1.44 1.34 1.00 0.94 1.04 1.01 1.00 1.05 1.19 1.31 1.50 1.71 1.89 1.99 2.09 2.53 2.95 3.11 3.02 2.76 2.57 2.47 2.57 2.67 2.57 2.41 2.32 2.19 1.97 1.82 1.79 1.83 1.92 1.92 1.98 1.98 2.08 2.15 2.21 2.37 2.46
0.13 0.24 0.70 0.97 1.03 1.01 0.81 1.21 1.72 1.35 0.91 0.77 0.87 0.86 0.76 0.71 0.68 0.78 0.97 1.08 1.18 1.22 1.28 1.45 1.73 1.98 2.06 1.95 1.94 1.99 2.02 2.07 2.04 2.17 2.03 2.00 1.87 1.72 1.73 1.68 1.65 1.70 1.74 1.76 2.07 2.12 2.24 2.38 2.45
0.24 0.29 0.30 0.51 0.70 1.05 1.05 1.24 1.35 1.13 0.89 0.85 0.94 0.85 0.67 0.63 0.58 0.65 0.76 0.76 0.86 0.92 0.98 1.13 1.38 1.61 1.64 1.62 1.65 1.69 1.70 1.71 1.71 1.77 1.71 1.69 1.72 1.64 1.63 1.63 1.73 1.70 1.72 1.82 2.00 2.06 2.14 2.33 2.37
0.20 0.28 0.43 0.68 0.92 1.07 1.13 1.43 1.61 1.44 1.19 1.05 1.01 0.88 0.67 0.55 0.54 0.60 0.70 0.69 0.80 0.97 1.13 1.26 1.37 1.45 1.45 1.43 1.41 1.34 1.44 1.44 1.49 1.47 1.41 1.42 1.49 1.50 1.50 1.52 1.60 1.66 1.67 1.74 1.94 1.99 2.06 2.18 2.19
0.23 0.30 0.46 0.64 0.70 0.91 1.27 1.38 1.15 1.12 1.10 1.15 1.14 0.96 0.72 0.55 0.49 0.55 0.67 0.73 0.81 0.95 1.08 1.22 1.31 1.40 1.36 1.32 1.37 1.40 1.41 1.42 1.42 1.39 1.32 1.39 1.46 1.48 1.47 1.51 1.59 1.63 1.67 1.77 1.88 1.84 1.95 1.97 1.96
0.22 0.33 0.48 0.71 0.77 0.81 0.97 1.10 0.72 0.74 0.86 0.93 0.93 0.75 0.58 0.51 0.49 0.57 0.69 0.74 0.87 0.95 0.99 1.00 1.09 1.27 1.29 1.30 1.41 1.59 1.56 1.55 1.49 1.37 1.33 1.38 1.39 1.41 1.42 1.51 1.58 1.57 1.64 1.80 1.89 1.86 1.93 1.94 1.89